K6OUA-11 Weather Reports


Display with metric or nautical units.
time (UTC)temp
F
wind
direction
speed
MPH
gust
MPH
rain 1hr
in
rain 24hr
in
rain mn
in
humidity
%
barometer
mb
20170528220614 82 240 5.0 12.0 0.00 0.00 0.00 44 1009.7
20170528220513 82 240 5.0 12.0 0.00 0.00 0.00 44 1009.7
20170528220212 82 256 6.0 13.0 0.00 0.00 0.00 44 1009.6
20170528220016 82 252 6.0 13.0 0.00 0.00 0.00 43 1009.7
20170528215912 82 252 6.0 13.0 0.00 0.00 0.00 43 1009.7
20170528215612 82 263 7.0 9.0 0.00 0.00 0.00 44 1009.6
20170528215406 82 261 9.0 11.0 0.00 0.00 0.00 44 1009.6
20170528215309 82 261 9.0 11.0 0.00 0.00 0.00 44 1009.6
20170528215130 83 261 4.0 11.0 0.00 0.00 0.00 43 1009.7
20170528215008 83 261 4.0 11.0 0.00 0.00 0.00 43 1009.7
20170528214708 83 241 5.0 10.0 0.00 0.00 0.00 43 1009.6
20170528214407 83 254 2.0 9.0 0.00 0.00 0.00 43 1009.8
20170528214204 83 265 5.0 6.0 0.00 0.00 0.00 44 1009.7
20170528214104 83 265 5.0 6.0 0.00 0.00 0.00 44 1009.7
20170528213939 82 256 6.0 9.0 0.00 0.00 0.00 44 1009.7
20170528213803 82 256 6.0 9.0 0.00 0.00 0.00 44 1009.7
20170528213502 82 261 5.0 13.0 0.00 0.00 0.00 44 1009.6
20170528213203 82 254 6.0 13.0 0.00 0.00 0.00 44 1009.7
20170528213015 82 247 2.0 6.0 0.00 0.00 0.00 44 1009.7
20170528212900 82 247 2.0 6.0 0.00 0.00 0.00 44 1009.7
20170528212559 82 238 3.0 13.0 0.00 0.00 0.00 44 1009.8
20170528212351 82 252 8.0 13.0 0.00 0.00 0.00 44 1009.7
20170528212258 82 252 8.0 13.0 0.00 0.00 0.00 44 1009.7
20170528211958 82 247 4.0 9.0 0.00 0.00 0.00 44 1009.7
20170528211801 82 272 4.0 12.0 0.00 0.00 0.00 44 1009.8
20170528211656 82 272 4.0 12.0 0.00 0.00 0.00 44 1009.8
20170528211537 82 256 7.0 12.0 0.00 0.00 0.00 44 1009.8
20170528211354 82 256 7.0 12.0 0.00 0.00 0.00 44 1009.8
20170528211146 82 257 4.0 10.0 0.00 0.00 0.00 44 1009.9
20170528211053 82 257 4.0 10.0 0.00 0.00 0.00 44 1009.9
20170528210932 82 247 5.0 9.0 0.00 0.00 0.00 44 1009.8
20170528210752 82 247 5.0 9.0 0.00 0.00 0.00 44 1009.8
20170528210549 81 225 4.0 8.0 0.00 0.00 0.00 44 1009.9
20170528210451 81 225 4.0 8.0 0.00 0.00 0.00 44 1009.9
20170528205549 81 272 12.0 12.0 0.00 0.00 0.00 44 1009.8
20170528205247 81 252 5.0 9.0 0.00 0.00 0.00 44 1009.8
20170528204644 81 252 3.0 9.0 0.00 0.00 0.00 44 1009.9
20170528204343 81 256 6.0 8.0 0.00 0.00 0.00 44 1009.9
20170528204150 81 247 6.0 10.0 0.00 0.00 0.00 44 1009.9
20170528204042 81 247 6.0 10.0 0.00 0.00 0.00 44 1009.9
20170528203836 81 270 8.0 10.0 0.00 0.00 0.00 44 1009.9
20170528203741 81 270 8.0 10.0 0.00 0.00 0.00 44 1009.9
20170528203616 81 247 4.0 8.0 0.00 0.00 0.00 44 1009.8
20170528203440 81 247 4.0 8.0 0.00 0.00 0.00 44 1009.8
20170528203244 81 254 3.0 8.0 0.00 0.00 0.00 45 1010.1
20170528203139 81 254 3.0 8.0 0.00 0.00 0.00 45 1010.1
20170528202941 81 230 3.0 4.0 0.00 0.00 0.00 45 1010.0
20170528202838 81 230 3.0 4.0 0.00 0.00 0.00 45 1010.0
20170528202725 81 249 3.0 10.0 0.00 0.00 0.00 45 1009.9
20170528202537 81 249 3.0 10.0 0.00 0.00 0.00 45 1009.9
20170528202352 81 261 3.0 10.0 0.00 0.00 0.00 45 1009.9
20170528202236 81 261 3.0 10.0 0.00 0.00 0.00 45 1009.9
20170528201936 81 235 3.0 7.0 0.00 0.00 0.00 44 1010.2
20170528201734 81 240 4.0 11.0 0.00 0.00 0.00 44 1010.3
20170528201633 81 240 4.0 11.0 0.00 0.00 0.00 44 1010.3
20170528201434 81 267 9.0 9.0 0.00 0.00 0.00 44 1010.1
20170528201332 81 267 9.0 9.0 0.00 0.00 0.00 44 1010.1
20170528201144 81 261 6.0 7.0 0.00 0.00 0.00 44 1010.2
20170528201031 81 261 6.0 7.0 0.00 0.00 0.00 44 1010.2
20170528200730 81 240 3.0 8.0 0.00 0.00 0.00 44 1010.2
20170528200429 81 270 3.0 9.0 0.00 0.00 0.00 45 1010.3
20170528200236 81 272 7.0 9.0 0.00 0.00 0.00 44 1010.4
20170528200130 81 272 7.0 9.0 0.00 0.00 0.00 44 1010.4
20170528195227 82 254 5.0 5.0 0.00 0.00 0.00 45 1010.3
20170528195108 82 238 4.0 11.0 0.00 0.00 0.00 44 1010.2
20170528194924 82 238 4.0 11.0 0.00 0.00 0.00 44 1010.2
20170528194751 82 270 8.0 8.0 0.00 0.00 0.00 44 1010.3
20170528194622 82 270 8.0 8.0 0.00 0.00 0.00 44 1010.3
20170528194433 82 247 5.0 10.0 0.00 0.00 0.00 44 1010.4
20170528194321 82 247 5.0 10.0 0.00 0.00 0.00 44 1010.4
20170528193719 82 265 7.0 7.0 0.00 0.00 0.00 44 1010.4
20170528193534 82 267 7.0 7.0 0.00 0.00 0.00 45 1010.4
20170528193418 82 267 7.0 7.0 0.00 0.00 0.00 45 1010.4
20170528192655 81 267 8.0 11.0 0.00 0.00 0.00 44 1010.3
20170528192515 81 267 8.0 11.0 0.00 0.00 0.00 44 1010.3
20170528192342 81 265 9.0 9.0 0.00 0.00 0.00 44 1010.3
20170528192214 81 265 9.0 9.0 0.00 0.00 0.00 44 1010.3
20170528192033 81 265 3.0 8.0 0.00 0.00 0.00 44 1010.3
20170528191913 81 265 3.0 8.0 0.00 0.00 0.00 44 1010.3
20170528191312 81 267 2.0 11.0 0.00 0.00 0.00 44 1010.3
20170528191147 81 267 6.0 11.0 0.00 0.00 0.00 44 1010.3
20170528191009 81 267 6.0 11.0 0.00 0.00 0.00 44 1010.3
20170528190833 81 263 4.0 7.0 0.00 0.00 0.00 44 1010.2
20170528190708 81 263 4.0 7.0 0.00 0.00 0.00 44 1010.2
20170528190534 81 234 1.0 6.0 0.00 0.00 0.00 45 1010.4
20170528190407 81 234 1.0 6.0 0.00 0.00 0.00 45 1010.4
20170528190254 81 267 4.0 5.0 0.00 0.00 0.00 45 1010.2
20170528190106 81 267 4.0 5.0 0.00 0.00 0.00 45 1010.2
20170528185805 80 261 4.0 8.0 0.00 0.00 0.00 44 1010.3
20170528185504 80 272 4.0 8.0 0.00 0.00 0.00 44 1010.2
20170528185204 80 250 5.0 6.0 0.00 0.00 0.00 46 1010.3
20170528184914 79 227 1.0 5.0 0.00 0.00 0.00 45 1010.3
20170528184903 80 256 6.0 6.0 0.00 0.00 0.00 45 1010.3
20170528184600 79 227 1.0 5.0 0.00 0.00 0.00 45 1010.3
20170528184259 79 238 1.0 10.0 0.00 0.00 0.00 44 1010.3
20170528183908 80 242 0.0 6.0 0.00 0.00 0.00 44 1010.3
20170528183657 80 242 0.0 6.0 0.00 0.00 0.00 44 1010.3
20170528183523 80 270 6.0 8.0 0.00 0.00 0.00 44 1010.3
20170528183356 80 270 6.0 8.0 0.00 0.00 0.00 44 1010.3
20170528183231 80 254 4.0 9.0 0.00 0.00 0.00 44 1010.4
20170528183055 80 254 4.0 9.0 0.00 0.00 0.00 44 1010.4
20170528182802 81 222 3.0 7.0 0.00 0.00 0.00 45 1010.4
20170528182756 81 245 0.0 8.0 0.00 0.00 0.00 45 1010.5
20170528182454 81 222 3.0 7.0 0.00 0.00 0.00 45 1010.4
20170528182153 81 261 3.0 6.0 0.00 0.00 0.00 45 1010.4
20170528181551 81 249 3.0 3.0 0.00 0.00 0.00 46 1010.6
20170528181352 80 256 3.0 7.0 0.00 0.00 0.00 46 1010.5
20170528181248 80 256 3.0 7.0 0.00 0.00 0.00 46 1010.5
20170528181123 80 245 3.0 3.0 0.00 0.00 0.00 47 1010.5
20170528180947 80 245 3.0 3.0 0.00 0.00 0.00 47 1010.5
20170528180812 80 234 0.0 5.0 0.00 0.00 0.00 47 1010.5
20170528180647 80 234 0.0 5.0 0.00 0.00 0.00 47 1010.5
20170528180503 79 252 3.0 5.0 0.00 0.00 0.00 47 1010.5
20170528180345 79 252 3.0 5.0 0.00 0.00 0.00 47 1010.5
20170528180212 79 236 2.0 3.0 0.00 0.00 0.00 47 1010.5
20170528180044 79 236 2.0 3.0 0.00 0.00 0.00 47 1010.5
20170528175921 79 180 3.0 6.0 0.00 0.00 0.00 48 1010.4
20170528175743 79 180 3.0 6.0 0.00 0.00 0.00 48 1010.4
20170528175559 79 270 4.0 6.0 0.00 0.00 0.00 48 1010.5
20170528175442 79 270 4.0 6.0 0.00 0.00 0.00 48 1010.5
20170528175300 78 247 4.0 4.0 0.00 0.00 0.00 49 1010.5
20170528175141 78 247 4.0 4.0 0.00 0.00 0.00 49 1010.5
20170528174653 78 270 5.0 7.0 0.00 0.00 0.00 50 1010.6
20170528174540 78 270 5.0 7.0 0.00 0.00 0.00 50 1010.6
20170528174239 77 254 0.0 6.0 0.00 0.00 0.00 50 1010.6
20170528174102 77 285 2.0 5.0 0.00 0.00 0.00 50 1010.6
20170528173936 77 285 2.0 5.0 0.00 0.00 0.00 50 1010.6
20170528173755 76 270 3.0 5.0 0.00 0.00 0.00 51 1010.7
20170528173635 76 270 3.0 5.0 0.00 0.00 0.00 51 1010.7
20170528173450 76 157 1.0 6.0 0.00 0.00 0.00 51 1010.6
20170528173334 76 157 1.0 6.0 0.00 0.00 0.00 51 1010.6
20170528173131 76 261 4.0 9.0 0.00 0.00 0.00 50 1010.5
20170528173034 76 261 4.0 9.0 0.00 0.00 0.00 50 1010.5
20170528172856 76 270 5.0 9.0 0.00 0.00 0.00 51 1010.7
20170528172736 76 270 5.0 9.0 0.00 0.00 0.00 51 1010.7
20170528171937 76 261 5.0 7.0 0.00 0.00 0.00 52 1010.7
20170528171828 76 261 5.0 7.0 0.00 0.00 0.00 52 1010.7
20170528171649 76 238 3.0 6.0 0.00 0.00 0.00 52 1010.6
20170528171527 76 238 3.0 6.0 0.00 0.00 0.00 52 1010.6
20170528171330 76 258 4.0 8.0 0.00 0.00 0.00 51 1010.5
20170528171226 76 258 4.0 8.0 0.00 0.00 0.00 51 1010.5
20170528171047 76 249 3.0 6.0 0.00 0.00 0.00 53 1010.8
20170528170925 76 249 3.0 6.0 0.00 0.00 0.00 53 1010.8
20170528170624 76 283 5.0 6.0 0.00 0.00 0.00 53 1010.7
20170528170451 76 262 1.0 7.0 0.00 0.00 0.00 53 1010.5
20170528170324 76 262 1.0 7.0 0.00 0.00 0.00 53 1010.5
20170528170133 76 254 3.0 7.0 0.00 0.00 0.00 54 1010.5
20170528170023 76 254 3.0 7.0 0.00 0.00 0.00 54 1010.5
20170528165853 75 236 1.0 5.0 0.00 0.00 0.00 54 1010.7
20170528165722 75 236 1.0 5.0 0.00 0.00 0.00 54 1010.7
20170528165555 75 270 3.0 6.0 0.00 0.00 0.00 55 1010.7
20170528165420 75 270 3.0 6.0 0.00 0.00 0.00 55 1010.7
20170528164818 74 270 1.0 4.0 0.00 0.00 0.00 55 1010.9
20170528164647 74 238 1.0 4.0 0.00 0.00 0.00 55 1010.9
20170528164516 74 238 1.0 4.0 0.00 0.00 0.00 55 1010.9
20170528163915 73 252 3.0 7.0 0.00 0.00 0.00 56 1010.8
20170528163722 73 310 4.0 7.0 0.00 0.00 0.00 55 1010.9
20170528163613 73 310 4.0 7.0 0.00 0.00 0.00 55 1010.9
20170528163428 73 272 4.0 7.0 0.00 0.00 0.00 56 1010.9
20170528163312 73 272 4.0 7.0 0.00 0.00 0.00 56 1010.9
20170528162902 74 272 5.0 7.0 0.00 0.00 0.00 56 1010.9
20170528162711 74 272 5.0 7.0 0.00 0.00 0.00 56 1010.9
20170528162109 74 249 2.0 3.0 0.00 0.00 0.00 58 1011.0
20170528161505 73 247 3.0 3.0 0.00 0.00 0.00 58 1010.9
20170528161314 73 265 2.0 6.0 0.00 0.00 0.00 58 1011.0
20170528161204 73 265 2.0 6.0 0.00 0.00 0.00 58 1011.0
20170528161032 73 249 3.0 4.0 0.00 0.00 0.00 58 1010.8
20170528160903 73 249 3.0 4.0 0.00 0.00 0.00 58 1010.8
20170528160724 73 249 2.0 6.0 0.00 0.00 0.00 58 1010.8
20170528160603 73 249 2.0 6.0 0.00 0.00 0.00 58 1010.8
20170528160412 73 270 6.0 6.0 0.00 0.00 0.00 59 1010.8
20170528160302 73 270 6.0 6.0 0.00 0.00 0.00 59 1010.8
20170528160125 73 247 1.0 5.0 0.00 0.00 0.00 60 1010.9
20170528160002 73 247 1.0 5.0 0.00 0.00 0.00 60 1010.9
20170528155518 73 231 0.0 6.0 0.00 0.00 0.00 61 1010.9
20170528155358 73 231 0.0 6.0 0.00 0.00 0.00 61 1010.9
20170528155208 73 267 5.0 6.0 0.00 0.00 0.00 61 1010.8
20170528155056 73 267 5.0 6.0 0.00 0.00 0.00 61 1010.8
20170528154756 73 234 0.0 3.0 0.00 0.00 0.00 62 1010.9
20170528154611 72 270 2.0 3.0 0.00 0.00 0.00 63 1011.1
20170528154455 72 270 2.0 3.0 0.00 0.00 0.00 63 1011.1
20170528154323 72 243 1.0 3.0 0.00 0.00 0.00 63 1011.0
20170528154155 72 243 1.0 3.0 0.00 0.00 0.00 63 1011.0
20170528154027 72 225 0.0 2.0 0.00 0.00 0.00 65 1010.9
20170528153853 72 225 0.0 2.0 0.00 0.00 0.00 65 1010.9
20170528153404 71 279 4.0 4.0 0.00 0.00 0.00 64 1010.6
20170528153250 71 279 4.0 4.0 0.00 0.00 0.00 64 1010.6
20170528153123 71 292 2.0 3.0 0.00 0.00 0.00 65 1010.7
20170528152949 71 292 2.0 3.0 0.00 0.00 0.00 65 1010.7
20170528152648 71 240 0.0 2.0 0.00 0.00 0.00 68 1010.6
20170528152500 70 225 0.0 2.0 0.00 0.00 0.00 68 1010.7
20170528152346 70 225 0.0 2.0 0.00 0.00 0.00 68 1010.7
20170528152155 69 225 0.0 0.0 0.00 0.00 0.00 70 1010.8
20170528152045 69 225 0.0 0.0 0.00 0.00 0.00 70 1010.8
20170528151902 69 225 0.0 2.0 0.00 0.00 0.00 70 1010.8
20170528151745 69 225 0.0 2.0 0.00 0.00 0.00 70 1010.8
20170528151617 68 182 2.0 2.0 0.00 0.00 0.00 71 1010.8
20170528151444 68 182 2.0 2.0 0.00 0.00 0.00 71 1010.8
20170528151249 67 180 1.0 2.0 0.00 0.00 0.00 72 1010.8
20170528151143 67 180 1.0 2.0 0.00 0.00 0.00 72 1010.8
20170528151009 67 148 1.0 3.0 0.00 0.00 0.00 73 1010.8
20170528150842 67 148 1.0 3.0 0.00 0.00 0.00 73 1010.8
20170528150647 66 195 1.0 2.0 0.00 0.00 0.00 74 1010.6
20170528150540 66 195 1.0 2.0 0.00 0.00 0.00 74 1010.6
20170528150241 65 225 0.0 2.0 0.00 0.00 0.00 75 1010.7
20170528150117 65 225 0.0 2.0 0.00 0.00 0.00 76 1010.6
20170528145938 65 225 0.0 2.0 0.00 0.00 0.00 76 1010.6
20170528145636 64 45 0.0 2.0 0.00 0.00 0.00 76 1010.6
20170528145508 63 132 1.0 2.0 0.00 0.00 0.00 77 1010.6
20170528145335 63 132 1.0 2.0 0.00 0.00 0.00 77 1010.6
20170528145200 63 157 0.0 2.0 0.00 0.00 0.00 79 1010.7
20170528145035 63 157 0.0 2.0 0.00 0.00 0.00 79 1010.7
20170528144555 61 135 0.0 2.0 0.00 0.00 0.00 79 1010.5
20170528144432 61 135 0.0 2.0 0.00 0.00 0.00 79 1010.5
20170528144242 61 132 0.0 2.0 0.00 0.00 0.00 80 1010.4
20170528144131 61 132 0.0 2.0 0.00 0.00 0.00 80 1010.4
20170528143921 60 126 1.0 2.0 0.00 0.00 0.00 81 1010.5
20170528143830 60 126 1.0 2.0 0.00 0.00 0.00 81 1010.5
20170528143529 60 141 1.0 2.0 0.00 0.00 0.00 82 1010.6
20170528143228 59 45 0.0 3.0 0.00 0.00 0.00 82 1010.5
20170528143036 59 90 2.0 3.0 0.00 0.00 0.00 83 1010.5
20170528142928 59 90 2.0 3.0 0.00 0.00 0.00 83 1010.5
20170528142812 58 92 3.0 3.0 0.00 0.00 0.00 83 1010.6
20170528142626 58 92 3.0 3.0 0.00 0.00 0.00 83 1010.6
20170528142138 57 105 1.0 1.0 0.00 0.00 0.00 85 1010.7
20170528142023 57 105 1.0 1.0 0.00 0.00 0.00 85 1010.7
20170528141914 57 90 1.0 2.0 0.00 0.00 0.00 85 1010.7
20170528141723 57 90 1.0 2.0 0.00 0.00 0.00 85 1010.7
20170528141423 56 130 2.0 2.0 0.00 0.00 0.00 85 1010.5
20170528141240 56 135 1.0 2.0 0.00 0.00 0.00 86 1010.3
20170528141120 56 135 1.0 2.0 0.00 0.00 0.00 86 1010.3
20170528140947 56 180 0.0 1.0 0.00 0.00 0.00 86 1010.4
20170528140819 56 180 0.0 1.0 0.00 0.00 0.00 86 1010.4
20170528140518 55 90 1.0 1.0 0.00 0.00 0.00 87 1010.2
20170528140324 55 180 0.0 1.0 0.00 0.00 0.00 88 1010.3
20170528140217 55 180 0.0 1.0 0.00 0.00 0.00 88 1010.3
20170528135610 54 135 0.0 2.0 0.00 0.00 0.00 89 1010.5
20170528135008 53 180 0.0 1.0 0.00 0.00 0.00 89 1010.2
20170528134524 52 90 1.0 1.0 0.00 0.00 0.00 90 1010.3
20170528134405 52 90 1.0 1.0 0.00 0.00 0.00 90 1010.3
20170528134241 51 121 1.0 1.0 0.00 0.00 0.00 90 1010.2
20170528134107 51 121 1.0 1.0 0.00 0.00 0.00 90 1010.2
20170528134105 51 121 1.0 1.0 0.00 0.00 0.00 90 1010.2
20170528133803 51 135 0.0 2.0 0.00 0.00 0.00 90 1010.1
20170528133556 51 135 1.0 2.0 0.00 0.00 0.00 90 1010.2
20170528133503 51 135 1.0 2.0 0.00 0.00 0.00 90 1010.2
20170528133202 51 90 1.0 2.0 0.00 0.00 0.00 91 1010.1
20170528132901 50 105 1.0 3.0 0.00 0.00 0.00 91 1010.0
20170528132859 50 105 1.0 3.0 0.00 0.00 0.00 91 1010.0
20170528132558 50 135 1.0 3.0 0.00 0.00 0.00 91 1010.0
20170528132258 49 135 1.0 1.0 0.00 0.00 0.00 91 1010.0
20170528131956 49 177 0.0 2.0 0.00 0.00 0.00 91 1010.0
20170528131833 49 132 0.0 2.0 0.00 0.00 0.00 91 1009.8
20170528131655 49 132 0.0 2.0 0.00 0.00 0.00 91 1009.8
20170528131505 49 90 1.0 2.0 0.00 0.00 0.00 90 1009.8
20170528131356 49 90 1.0 2.0 0.00 0.00 0.00 90 1009.8
20170528131354 49 90 1.0 2.0 0.00 0.00 0.00 90 1009.8
20170528131053 48 90 0.0 1.0 0.00 0.00 0.00 91 1009.8
20170528130753 48 90 0.0 2.0 0.00 0.00 0.00 91 1009.9
20170528130547 48 135 0.0 2.0 0.00 0.00 0.00 91 1009.9
20170528130451 48 135 0.0 2.0 0.00 0.00 0.00 91 1009.9
20170528130308 48 135 0.0 1.0 0.00 0.00 0.00 89 1009.9
20170528130149 48 135 0.0 1.0 0.00 0.00 0.00 89 1009.9
20170528130018 48 180 0.0 0.0 0.00 0.00 0.00 90 1009.8
20170528125848 48 180 0.0 0.0 0.00 0.00 0.00 90 1009.8
20170528125724 48 180 0.0 0.0 0.00 0.00 0.00 90 1009.9
20170528125548 48 180 0.0 0.0 0.00 0.00 0.00 90 1009.9
20170528125400 48 180 0.0 0.0 0.00 0.00 0.00 90 1009.8
20170528125246 48 180 0.0 0.0 0.00 0.00 0.00 90 1009.8
20170528125117 48 90 0.0 2.0 0.00 0.00 0.00 90 1009.7
20170528124945 48 90 0.0 2.0 0.00 0.00 0.00 90 1009.7
20170528124458 48 45 1.0 2.0 0.00 0.00 0.00 90 1009.6
20170528124343 48 45 1.0 2.0 0.00 0.00 0.00 90 1009.6
20170528124043 48 45 0.0 0.0 0.00 0.00 0.00 89 1009.6
20170528123741 48 45 0.0 1.0 0.00 0.00 0.00 89 1009.5
20170528123529 49 45 0.0 1.0 0.00 0.00 0.00 88 1009.5
20170528123441 49 45 0.0 1.0 0.00 0.00 0.00 88 1009.5
20170528123301 49 45 0.0 1.0 0.00 0.00 0.00 89 1009.5
20170528123138 49 45 0.0 1.0 0.00 0.00 0.00 89 1009.5
20170528123001 49 135 0.0 2.0 0.00 0.00 0.00 89 1009.5
20170528122837 49 135 0.0 2.0 0.00 0.00 0.00 89 1009.5
20170528122715 49 270 0.0 2.0 0.00 0.00 0.00 90 1009.6
20170528122538 49 270 0.0 2.0 0.00 0.00 0.00 90 1009.6
20170528122536 49 270 0.0 2.0 0.00 0.00 0.00 90 1009.6
20170528122412 49 99 1.0 1.0 0.00 0.00 0.00 90 1009.4
20170528122237 49 99 1.0 1.0 0.00 0.00 0.00 90 1009.4
20170528122235 49 99 1.0 1.0 0.00 0.00 0.00 90 1009.4
20170528121934 49 135 0.0 1.0 0.00 0.00 0.00 89 1009.4
20170528121814 49 135 0.0 3.0 0.00 0.00 0.00 89 1009.4
20170528121633 49 135 0.0 3.0 0.00 0.00 0.00 89 1009.4
20170528121505 49 99 2.0 4.0 0.00 0.00 0.00 90 1009.4
20170528121333 49 99 2.0 4.0 0.00 0.00 0.00 90 1009.4
20170528121201 49 90 4.0 4.0 0.00 0.00 0.00 90 1009.3
20170528121031 49 90 4.0 4.0 0.00 0.00 0.00 90 1009.3
20170528120732 49 90 2.0 3.0 0.00 0.00 0.00 90 1009.3
20170528120429 49 114 1.0 3.0 0.00 0.00 0.00 90 1009.3
20170528120128 49 90 2.0 4.0 0.00 0.00 0.00 90 1009.4
20170528120003 49 90 2.0 4.0 0.00 0.00 0.00 90 1009.3
20170528115826 49 90 2.0 4.0 0.00 0.00 0.00 90 1009.3
20170528115722 49 92 3.0 3.0 0.00 0.00 0.00 90 1009.3
20170528115527 49 92 3.0 3.0 0.00 0.00 0.00 90 1009.3
20170528115402 49 90 2.0 3.0 0.00 0.00 0.00 90 1009.4
20170528115224 49 90 2.0 3.0 0.00 0.00 0.00 90 1009.4
20170528114759 49 90 2.0 4.0 0.00 0.00 0.00 91 1009.4
20170528114622 49 90 2.0 4.0 0.00 0.00 0.00 91 1009.4
20170528114441 49 90 4.0 4.0 0.00 0.00 0.00 90 1009.5
20170528114321 49 90 4.0 4.0 0.00 0.00 0.00 90 1009.5
20170528114214 49 90 3.0 4.0 0.00 0.00 0.00 91 1009.3
20170528114020 49 90 3.0 4.0 0.00 0.00 0.00 91 1009.3
20170528113951 49 90 2.0 3.0 0.00 0.00 0.00 91 1009.4
20170528113719 49 90 2.0 3.0 0.00 0.00 0.00 91 1009.4
20170528113417 49 90 2.0 2.0 0.00 0.00 0.00 91 1009.3
20170528113118 49 119 1.0 3.0 0.00 0.00 0.00 91 1009.4
20170528112815 49 135 1.0 3.0 0.00 0.00 0.00 90 1009.3
20170528112514 49 90 1.0 1.0 0.00 0.00 0.00 91 1009.3
20170528112353 49 90 1.0 2.0 0.00 0.00 0.00 90 1009.2
20170528112213 49 90 1.0 2.0 0.00 0.00 0.00 90 1009.2
20170528111912 49 130 1.0 2.0 0.00 0.00 0.00 90 1009.3
20170528111720 49 90 1.0 3.0 0.00 0.00 0.00 90 1009.3
20170528111612 49 90 1.0 3.0 0.00 0.00 0.00 90 1009.3
20170528111311 49 101 1.0 3.0 0.00 0.00 0.00 91 1009.3
20170528111140 49 87 2.0 3.0 0.00 0.00 0.00 90 1009.4
20170528111009 49 87 2.0 3.0 0.00 0.00 0.00 90 1009.4
20170528110707 49 135 1.0 2.0 0.00 0.00 0.00 90 1009.3
20170528110408 49 180 0.0 2.0 0.00 0.00 0.00 90 1009.3
20170528110406 49 180 0.0 2.0 0.00 0.00 0.00 90 1009.3
20170528110232 49 45 1.0 2.0 0.00 0.00 0.00 91 1009.4
20170528110106 49 45 1.0 2.0 0.00 0.00 0.00 91 1009.4
20170528105943 49 65 1.0 1.0 0.00 0.00 0.00 91 1009.3
20170528105805 49 65 1.0 1.0 0.00 0.00 0.00 91 1009.3
20170528105205 48 45 0.0 1.0 0.00 0.00 0.00 90 1009.3
20170528105023 48 135 0.0 2.0 0.00 0.00 0.00 90 1009.4
20170528104901 48 135 0.0 2.0 0.00 0.00 0.00 90 1009.4
20170528104716 48 90 1.0 2.0 0.00 0.00 0.00 90 1009.5
20170528104602 48 90 1.0 2.0 0.00 0.00 0.00 90 1009.5
20170528104600 48 90 1.0 2.0 0.00 0.00 0.00 90 1009.5
20170528104426 48 135 1.0 2.0 0.00 0.00 0.00 90 1009.4
20170528104259 48 135 1.0 2.0 0.00 0.00 0.00 90 1009.4
20170528104121 48 130 1.0 2.0 0.00 0.00 0.00 90 1009.6
20170528103958 48 130 1.0 2.0 0.00 0.00 0.00 90 1009.6
20170528103917 48 90 1.0 1.0 0.00 0.00 0.00 90 1009.6
20170528103656 48 90 1.0 1.0 0.00 0.00 0.00 90 1009.6
20170528103222 48 67 1.0 1.0 0.00 0.00 0.00 90 1009.7
20170528103054 48 67 1.0 1.0 0.00 0.00 0.00 90 1009.7
20170528102753 48 67 0.0 1.0 0.00 0.00 0.00 90 1009.6
20170528102607 48 67 1.0 1.0 0.00 0.00 0.00 89 1009.8
20170528102452 48 67 1.0 1.0 0.00 0.00 0.00 89 1009.8
20170528102151 48 45 0.0 1.0 0.00 0.00 0.00 90 1009.8
20170528102058 48 45 1.0 1.0 0.00 0.00 0.00 90 1009.7
20170528101850 48 45 1.0 1.0 0.00 0.00 0.00 90 1009.7
20170528101712 48 45 0.0 1.0 0.00 0.00 0.00 89 1009.8
20170528101549 48 45 0.0 1.0 0.00 0.00 0.00 89 1009.8
20170528101445 48 76 1.0 1.0 0.00 0.00 0.00 89 1009.9
20170528101248 48 76 1.0 1.0 0.00 0.00 0.00 89 1009.9
20170528101124 48 218 0.0 0.0 0.00 0.00 0.00 89 1009.8
20170528100946 48 218 0.0 0.0 0.00 0.00 0.00 89 1009.8
20170528100829 48 0 0.0 1.0 0.00 0.00 0.00 89 1010.0
20170528100645 48 0 0.0 1.0 0.00 0.00 0.00 89 1010.0
20170528100245 48 112 0.0 1.0 0.00 0.00 0.00 88 1009.8
20170528100044 48 112 0.0 1.0 0.00 0.00 0.00 88 1009.8
20170528095956 48 112 0.0 1.0 0.00 0.00 0.00 88 1009.9
20170528095742 48 112 0.0 1.0 0.00 0.00 0.00 88 1009.9
20170528095615 48 112 0.0 0.0 0.00 0.00 0.00 88 1010.0
20170528095441 48 112 0.0 0.0 0.00 0.00 0.00 88 1010.0
20170528095252 48 112 0.0 1.0 0.00 0.00 0.00 88 1010.1
20170528095140 48 112 0.0 1.0 0.00 0.00 0.00 88 1010.1
20170528094734 48 135 0.0 0.0 0.00 0.00 0.00 88 1010.1
20170528094538 48 135 0.0 0.0 0.00 0.00 0.00 88 1010.1
20170528093937 48 135 0.0 0.0 0.00 0.00 0.00 88 1010.0
20170528093459 49 90 0.0 0.0 0.00 0.00 0.00 88 1010.1
20170528093333 49 90 0.0 0.0 0.00 0.00 0.00 88 1010.1
20170528093220 49 90 0.0 1.0 0.00 0.00 0.00 88 1010.1
20170528093032 49 90 0.0 1.0 0.00 0.00 0.00 88 1010.1
20170528092939 49 90 1.0 1.0 0.00 0.00 0.00 88 1010.0
20170528092731 49 90 1.0 1.0 0.00 0.00 0.00 88 1010.0
20170528092540 49 90 0.0 0.0 0.00 0.00 0.00 88 1010.1
20170528092430 49 90 0.0 0.0 0.00 0.00 0.00 88 1010.1
20170528092242 49 225 0.0 0.0 0.00 0.00 0.00 88 1010.1
20170528092129 49 225 0.0 0.0 0.00 0.00 0.00 88 1010.1
20170528092010 49 225 0.0 0.0 0.00 0.00 0.00 88 1010.1
20170528091828 49 225 0.0 0.0 0.00 0.00 0.00 88 1010.1
20170528091715 49 225 0.0 0.0 0.00 0.00 0.00 88 1010.0
20170528091527 49 225 0.0 0.0 0.00 0.00 0.00 88 1010.0
20170528091349 49 225 0.0 0.0 0.00 0.00 0.00 88 1010.2
20170528091226 49 225 0.0 0.0 0.00 0.00 0.00 88 1010.2
20170528091108 49 225 0.0 0.0 0.00 0.00 0.00 88 1010.2
20170528090924 49 225 0.0 0.0 0.00 0.00 0.00 88 1010.2
20170528090827 48 225 0.0 0.0 0.00 0.00 0.00 88 1010.2
20170528090623 48 225 0.0 0.0 0.00 0.00 0.00 88 1010.2
20170528090500 48 225 0.0 0.0 0.00 0.00 0.00 88 1010.2
20170528090322 48 225 0.0 0.0 0.00 0.00 0.00 88 1010.2
20170528090201 48 225 0.0 0.0 0.00 0.00 0.00 88 1010.2
20170528090021 48 225 0.0 0.0 0.00 0.00 0.00 88 1010.2
20170528085926 48 180 0.0 0.0 0.00 0.00 0.00 88 1010.2
20170528085720 48 180 0.0 0.0 0.00 0.00 0.00 88 1010.2
20170528085610 49 245 0.0 1.0 0.00 0.00 0.00 88 1010.3
20170528085419 49 245 0.0 1.0 0.00 0.00 0.00 88 1010.3
20170528085237 48 225 0.0 0.0 0.00 0.00 0.00 87 1010.1
20170528085118 48 225 0.0 0.0 0.00 0.00 0.00 87 1010.1
20170528084818 49 225 0.0 0.0 0.00 0.00 0.00 88 1010.3
20170528084707 49 45 0.0 0.0 0.00 0.00 0.00 88 1010.3
20170528084516 49 45 0.0 0.0 0.00 0.00 0.00 88 1010.3
20170528084355 49 45 0.0 1.0 0.00 0.00 0.00 87 1010.3
20170528084214 49 45 0.0 1.0 0.00 0.00 0.00 87 1010.3
20170528084058 49 42 1.0 2.0 0.00 0.00 0.00 87 1010.5
20170528083913 49 42 1.0 2.0 0.00 0.00 0.00 87 1010.5
20170528083614 48 90 0.0 0.0 0.00 0.00 0.00 87 1010.3
20170528083431 49 45 0.0 1.0 0.00 0.00 0.00 87 1010.5
20170528083311 49 45 0.0 1.0 0.00 0.00 0.00 87 1010.5
20170528083157 49 75 1.0 1.0 0.00 0.00 0.00 86 1010.5
20170528083010 49 75 1.0 1.0 0.00 0.00 0.00 86 1010.5
20170528082909 49 45 0.0 1.0 0.00 0.00 0.00 86 1010.5
20170528082709 49 45 0.0 1.0 0.00 0.00 0.00 86 1010.5
20170528082229 49 4 0.0 1.0 0.00 0.00 0.00 87 1010.5
20170528082107 49 4 0.0 1.0 0.00 0.00 0.00 87 1010.5
20170528081935 49 45 1.0 1.0 0.00 0.00 0.00 86 1010.6
20170528081807 49 45 1.0 1.0 0.00 0.00 0.00 86 1010.6
20170528081619 49 301 0.0 1.0 0.00 0.00 0.00 86 1010.6
20170528081504 49 301 0.0 1.0 0.00 0.00 0.00 86 1010.6
20170528081300 49 20 1.0 1.0 0.00 0.00 0.00 85 1010.6
20170528081203 49 20 1.0 1.0 0.00 0.00 0.00 85 1010.6
20170528081028 49 45 0.0 0.0 0.00 0.00 0.00 85 1010.6
20170528080903 49 45 0.0 0.0 0.00 0.00 0.00 85 1010.6
20170528080718 49 45 0.0 1.0 0.00 0.00 0.00 85 1010.6
20170528080601 49 45 0.0 1.0 0.00 0.00 0.00 85 1010.6
20170528080425 49 182 0.0 1.0 0.00 0.00 0.00 85 1010.7
20170528080300 49 182 0.0 1.0 0.00 0.00 0.00 85 1010.7
20170528080001 49 135 0.0 1.0 0.00 0.00 0.00 85 1010.6
20170528075222 49 225 0.0 0.0 0.00 0.00 0.00 84 1010.8
20170528075056 49 225 0.0 0.0 0.00 0.00 0.00 84 1010.8
20170528074920 49 225 0.0 0.0 0.00 0.00 0.00 84 1010.8
20170528074755 49 225 0.0 0.0 0.00 0.00 0.00 84 1010.8
20170528074603 49 225 0.0 0.0 0.00 0.00 0.00 84 1010.9
20170528074453 49 225 0.0 0.0 0.00 0.00 0.00 84 1010.9
20170528074405 49 225 0.0 0.0 0.00 0.00 0.00 84 1010.9
20170528074152 49 225 0.0 0.0 0.00 0.00 0.00 84 1010.9
20170528073708 50 225 0.0 0.0 0.00 0.00 0.00 84 1010.8
20170528073553 50 225 0.0 0.0 0.00 0.00 0.00 84 1010.8
20170528073550 50 225 0.0 0.0 0.00 0.00 0.00 84 1010.8
20170528073416 50 225 0.0 0.0 0.00 0.00 0.00 84 1010.8
20170528073249 50 225 0.0 0.0 0.00 0.00 0.00 84 1010.8
20170528072949 50 270 0.0 0.0 0.00 0.00 0.00 85 1010.8
20170528072831 50 270 0.0 0.0 0.00 0.00 0.00 85 1010.9
20170528072647 50 270 0.0 0.0 0.00 0.00 0.00 85 1010.9
20170528072509 50 270 0.0 0.0 0.00 0.00 0.00 85 1010.9
20170528072346 50 270 0.0 0.0 0.00 0.00 0.00 85 1010.9
20170528072217 50 270 0.0 0.0 0.00 0.00 0.00 86 1011.0
20170528072045 50 270 0.0 0.0 0.00 0.00 0.00 86 1011.0
20170528071944 50 270 0.0 1.0 0.00 0.00 0.00 87 1011.0
20170528071744 50 270 0.0 1.0 0.00 0.00 0.00 87 1011.0
20170528071623 50 270 1.0 2.0 0.00 0.00 0.00 87 1011.0
20170528071442 50 270 1.0 2.0 0.00 0.00 0.00 87 1011.0
20170528071315 50 315 1.0 1.0 0.00 0.00 0.00 85 1011.0
20170528071141 50 315 1.0 1.0 0.00 0.00 0.00 85 1011.0
20170528070842 50 270 1.0 2.0 0.00 0.00 0.00 85 1011.0
20170528070715 50 270 2.0 2.0 0.00 0.00 0.00 86 1011.0
20170528070539 50 270 2.0 2.0 0.00 0.00 0.00 86 1011.0
20170528070240 49 270 1.0 1.0 0.00 0.00 0.00 84 1011.1
20170528065938 50 270 0.0 0.0 0.00 0.00 0.00 83 1011.0
20170528065636 50 270 0.0 0.0 0.00 0.00 0.00 83 1011.0
20170528065449 50 270 0.0 0.0 0.00 0.00 0.00 82 1010.9
20170528065335 50 270 0.0 0.0 0.00 0.00 0.00 82 1010.9
20170528065214 50 270 0.0 0.0 0.00 0.00 0.00 83 1011.0
20170528065034 50 270 0.0 0.0 0.00 0.00 0.00 83 1011.0
20170528065006 50 270 0.0 0.0 0.00 0.00 0.00 83 1011.1
20170528064732 50 270 0.0 0.0 0.00 0.00 0.00 83 1011.1
20170528064558 50 270 0.0 0.0 0.00 0.00 0.00 83 1011.1
20170528064431 50 270 0.0 0.0 0.00 0.00 0.00 83 1011.1
20170528064247 50 270 0.0 0.0 0.00 0.00 0.00 83 1011.1
20170528064130 50 270 0.0 0.0 0.00 0.00 0.00 83 1011.1
20170528064013 50 270 0.0 0.0 0.00 0.00 0.00 83 1011.1
20170528063829 50 270 0.0 0.0 0.00 0.00 0.00 83 1011.1
20170528063339 50 270 1.0 1.0 0.00 0.00 0.00 82 1011.1
20170528063230 50 270 1.0 1.0 0.00 0.00 0.00 82 1011.1
20170528063056 50 270 0.0 0.0 0.00 0.00 0.00 82 1011.2
20170528062926 50 270 0.0 0.0 0.00 0.00 0.00 82 1011.2
20170528062842 50 270 0.0 1.0 0.00 0.00 0.00 82 1011.2
20170528062625 50 270 0.0 1.0 0.00 0.00 0.00 82 1011.2
20170528062459 50 270 1.0 1.0 0.00 0.00 0.00 82 1011.2
20170528062324 50 270 1.0 1.0 0.00 0.00 0.00 82 1011.2
20170528062213 51 270 0.0 0.0 0.00 0.00 0.00 81 1011.2
20170528062022 51 270 0.0 0.0 0.00 0.00 0.00 81 1011.2
20170528061903 51 270 0.0 0.0 0.00 0.00 0.00 82 1011.1
20170528061721 51 270 0.0 0.0 0.00 0.00 0.00 82 1011.1
20170528061609 51 270 0.0 0.0 0.00 0.00 0.00 81 1011.2
20170528061421 51 270 0.0 0.0 0.00 0.00 0.00 81 1011.2
20170528061245 51 270 0.0 0.0 0.00 0.00 0.00 81 1011.3
20170528061119 51 270 0.0 0.0 0.00 0.00 0.00 81 1011.3
20170528060630 51 270 0.0 0.0 0.00 0.00 0.00 81 1011.1
20170528060517 51 270 0.0 0.0 0.00 0.00 0.00 81 1011.1
20170528060257 51 270 0.0 1.0 0.00 0.00 0.00 81 1011.1
20170528060217 51 270 0.0 1.0 0.00 0.00 0.00 81 1011.1
20170528055916 51 225 0.0 0.0 0.00 0.00 0.00 80 1011.2
20170528055739 51 225 0.0 0.0 0.00 0.00 0.00 80 1011.1
20170528055614 51 225 0.0 0.0 0.00 0.00 0.00 80 1011.1
20170528055456 51 225 0.0 0.0 0.00 0.00 0.00 80 1011.2
20170528055312 51 225 0.0 0.0 0.00 0.00 0.00 80 1011.2
20170528054712 52 315 0.0 1.0 0.00 0.00 0.00 80 1011.1
20170528054535 52 315 0.0 1.0 0.00 0.00 0.00 81 1011.1
20170528054409 52 315 0.0 1.0 0.00 0.00 0.00 81 1011.1
20170528054251 52 315 0.0 1.0 0.00 0.00 0.00 80 1011.2
20170528054108 52 315 0.0 1.0 0.00 0.00 0.00 80 1011.2
20170528053937 52 315 0.0 0.0 0.00 0.00 0.00 79 1011.1
20170528053807 52 315 0.0 0.0 0.00 0.00 0.00 79 1011.1
20170528053632 52 225 0.0 0.0 0.00 0.00 0.00 79 1011.1
20170528053506 52 225 0.0 0.0 0.00 0.00 0.00 79 1011.1
20170528053055 52 180 0.0 0.0 0.00 0.00 0.00 80 1011.2
20170528052904 52 180 0.0 0.0 0.00 0.00 0.00 80 1011.2
20170528052811 52 225 0.0 0.0 0.00 0.00 0.00 81 1011.1
20170528052602 52 225 0.0 0.0 0.00 0.00 0.00 81 1011.1
20170528052303 52 22 1.0 2.0 0.00 0.00 0.00 81 1011.2
20170528052146 52 0 1.0 2.0 0.00 0.00 0.00 81 1011.1
20170528052000 52 0 1.0 2.0 0.00 0.00 0.00 81 1011.1
20170528051518 52 4 1.0 1.0 0.00 0.00 0.00 79 1011.1
20170528051358 52 4 1.0 1.0 0.00 0.00 0.00 79 1011.1
20170528051228 52 315 0.0 0.0 0.00 0.00 0.00 79 1011.1
20170528051057 52 315 0.0 0.0 0.00 0.00 0.00 79 1011.1
20170528050958 52 315 0.0 0.0 0.00 0.00 0.00 79 1011.1
20170528050756 52 315 0.0 0.0 0.00 0.00 0.00 79 1011.1
20170528050314 53 45 0.0 1.0 0.00 0.00 0.00 77 1011.4
20170528050155 53 45 0.0 1.0 0.00 0.00 0.00 77 1011.4
20170528045954 53 90 0.0 0.0 0.00 0.00 0.00 77 1011.3
20170528045853 53 90 0.0 0.0 0.00 0.00 0.00 77 1011.3
20170528045411 53 180 0.0 0.0 0.00 0.00 0.00 76 1011.3
20170528045250 53 180 0.0 0.0 0.00 0.00 0.00 76 1011.3
20170528045053 53 225 0.0 0.0 0.00 0.00 0.00 76 1011.3
20170528044949 53 225 0.0 0.0 0.00 0.00 0.00 76 1011.3
20170528044803 53 225 0.0 0.0 0.00 0.00 0.00 76 1011.3
20170528044648 53 225 0.0 0.0 0.00 0.00 0.00 76 1011.3
20170528044451 53 225 0.0 0.0 0.00 0.00 0.00 75 1011.2
20170528044347 53 225 0.0 0.0 0.00 0.00 0.00 75 1011.2
20170528044048 53 225 0.0 0.0 0.00 0.00 0.00 75 1011.2
20170528043923 53 225 0.0 0.0 0.00 0.00 0.00 76 1011.2
20170528043745 53 225 0.0 0.0 0.00 0.00 0.00 76 1011.2
20170528043601 53 270 0.0 0.0 0.00 0.00 0.00 76 1011.2
20170528043444 53 270 0.0 0.0 0.00 0.00 0.00 76 1011.2
20170528043013 54 225 0.0 0.0 0.00 0.00 0.00 75 1011.1
20170528042842 54 225 0.0 0.0 0.00 0.00 0.00 75 1011.1
20170528042818 54 225 0.0 0.0 0.00 0.00 0.00 75 1011.1
20170528042540 54 225 0.0 0.0 0.00 0.00 0.00 75 1011.1
20170528042433 54 225 0.0 0.0 0.00 0.00 0.00 74 1011.1
20170528042239 54 225 0.0 0.0 0.00 0.00 0.00 74 1011.1
20170528042042 54 225 0.0 0.0 0.00 0.00 0.00 73 1011.2
20170528041940 54 225 0.0 0.0 0.00 0.00 0.00 73 1011.2
20170528041750 54 225 0.0 0.0 0.00 0.00 0.00 73 1011.2
20170528041639 54 225 0.0 0.0 0.00 0.00 0.00 73 1011.2
20170528041153 54 213 0.0 0.0 0.00 0.00 0.00 73 1011.2
20170528041036 54 213 0.0 0.0 0.00 0.00 0.00 73 1011.2
20170528040909 54 180 0.0 0.0 0.00 0.00 0.00 72 1011.1
20170528040735 54 180 0.0 0.0 0.00 0.00 0.00 72 1011.1
20170528040434 54 225 0.0 0.0 0.00 0.00 0.00 72 1011.1
20170528040235 55 220 0.0 0.0 0.00 0.00 0.00 72 1011.1
20170528040132 55 220 0.0 0.0 0.00 0.00 0.00 72 1011.1
20170528035948 55 225 0.0 0.0 0.00 0.00 0.00 71 1011.0
20170528035830 55 225 0.0 0.0 0.00 0.00 0.00 71 1011.0
20170528034929 55 225 0.0 0.0 0.00 0.00 0.00 69 1010.9
20170528034627 55 225 0.0 1.0 0.00 0.00 0.00 69 1011.0
20170528034024 56 225 0.0 0.0 0.00 0.00 0.00 68 1011.0
20170528033847 56 225 0.0 0.0 0.00 0.00 0.00 67 1010.9
20170528033723 56 225 0.0 0.0 0.00 0.00 0.00 67 1010.9
20170528033523 57 225 0.0 0.0 0.00 0.00 0.00 66 1010.9
20170528033423 57 225 0.0 0.0 0.00 0.00 0.00 66 1010.9
20170528033237 57 225 0.0 0.0 0.00 0.00 0.00 66 1011.1
20170528033121 57 225 0.0 0.0 0.00 0.00 0.00 66 1011.1
20170528032941 58 225 0.0 0.0 0.00 0.00 0.00 65 1011.1
20170528032819 58 225 0.0 0.0 0.00 0.00 0.00 65 1011.1
20170528032625 58 225 0.0 0.0 0.00 0.00 0.00 65 1011.1
20170528032518 58 225 0.0 0.0 0.00 0.00 0.00 65 1011.1
20170528032329 58 225 0.0 0.0 0.00 0.00 0.00 64 1011.2
20170528032217 58 225 0.0 0.0 0.00 0.00 0.00 64 1011.2
20170528032109 59 225 0.0 0.0 0.00 0.00 0.00 64 1011.1
20170528031916 59 225 0.0 0.0 0.00 0.00 0.00 64 1011.1
20170528031750 59 225 0.0 0.0 0.00 0.00 0.00 64 1011.1
20170528031615 59 225 0.0 0.0 0.00 0.00 0.00 64 1011.1
20170528031420 60 234 1.0 1.0 0.00 0.00 0.00 62 1011.0
20170528031314 60 234 1.0 1.0 0.00 0.00 0.00 62 1011.0
20170528031137 60 252 1.0 2.0 0.00 0.00 0.00 62 1011.1
20170528031013 60 252 1.0 2.0 0.00 0.00 0.00 62 1011.1
20170528030827 61 249 1.0 1.0 0.00 0.00 0.00 61 1011.1
20170528030716 61 249 1.0 1.0 0.00 0.00 0.00 61 1011.1
20170528030413 61 225 0.0 1.0 0.00 0.00 0.00 61 1011.1
20170528025917 62 234 0.0 1.0 0.00 0.00 0.00 60 1011.2
20170528025809 62 234 0.0 1.0 0.00 0.00 0.00 60 1011.2
20170528025609 63 225 0.0 1.0 0.00 0.00 0.00 58 1011.0
20170528025507 63 225 0.0 1.0 0.00 0.00 0.00 58 1011.0
20170528025031 64 225 0.0 1.0 0.00 0.00 0.00 58 1011.3
20170528024905 64 225 0.0 1.0 0.00 0.00 0.00 58 1011.3
20170528024607 64 227 1.0 1.0 0.00 0.00 0.00 58 1011.2
20170528024423 64 225 0.0 1.0 0.00 0.00 0.00 57 1011.1
20170528024303 64 225 0.0 1.0 0.00 0.00 0.00 57 1011.1
20170528024202 65 0 0.0 2.0 0.00 0.00 0.00 57 1011.1
20170528024002 65 0 0.0 2.0 0.00 0.00 0.00 57 1011.1
20170528023406 66 229 0.0 1.0 0.00 0.00 0.00 56 1011.2
20170528023231 66 249 0.0 2.0 0.00 0.00 0.00 56 1011.2
20170528023058 66 249 0.0 2.0 0.00 0.00 0.00 56 1011.2
20170528022757 66 265 2.0 2.0 0.00 0.00 0.00 56 1011.1
20170528022457 67 234 0.0 3.0 0.00 0.00 0.00 55 1011.2
20170528022325 67 237 1.0 4.0 0.00 0.00 0.00 55 1011.3
20170528022155 67 237 1.0 4.0 0.00 0.00 0.00 55 1011.3
20170528022011 67 229 3.0 4.0 0.00 0.00 0.00 55 1011.3
20170528021854 67 229 3.0 4.0 0.00 0.00 0.00 55 1011.3
20170528021558 68 270 4.0 4.0 0.00 0.00 0.00 54 1011.3
20170528021254 68 225 1.0 6.0 0.00 0.00 0.00 54 1011.2
20170528020951 69 258 3.0 6.0 0.00 0.00 0.00 54 1011.2
20170528020157 69 256 2.0 5.0 0.00 0.00 0.00 52 1011.2
20170528020049 69 256 2.0 5.0 0.00 0.00 0.00 52 1011.2
20170528015936 70 236 2.0 7.0 0.00 0.00 0.00 52 1011.0
20170528015748 70 236 2.0 7.0 0.00 0.00 0.00 52 1011.0
20170528015308 70 234 3.0 5.0 0.00 0.00 0.00 52 1011.0
20170528015144 70 234 3.0 5.0 0.00 0.00 0.00 52 1011.0
20170528015015 70 254 4.0 4.0 0.00 0.00 0.00 52 1011.1
20170528014845 70 254 4.0 4.0 0.00 0.00 0.00 52 1011.1
20170528014542 71 252 3.0 4.0 0.00 0.00 0.00 51 1010.9
20170528014419 71 254 3.0 5.0 0.00 0.00 0.00 51 1011.1
20170528014241 71 254 3.0 5.0 0.00 0.00 0.00 51 1011.1
20170528014121 71 249 4.0 8.0 0.00 0.00 0.00 51 1011.1
20170528013940 71 249 4.0 8.0 0.00 0.00 0.00 51 1011.1
20170528013830 72 254 7.0 7.0 0.00 0.00 0.00 50 1011.1
20170528013640 72 254 7.0 7.0 0.00 0.00 0.00 50 1011.1
20170528013445 72 261 5.0 5.0 0.00 0.00 0.00 50 1011.1
20170528013337 72 261 5.0 5.0 0.00 0.00 0.00 50 1011.1
20170528013204 72 236 1.0 5.0 0.00 0.00 0.00 50 1011.2
20170528013036 72 236 1.0 5.0 0.00 0.00 0.00 50 1011.2
20170528012914 72 239 2.0 4.0 0.00 0.00 0.00 50 1011.1
20170528012735 72 239 2.0 4.0 0.00 0.00 0.00 50 1011.1
20170528012551 72 222 2.0 7.0 0.00 0.00 0.00 50 1011.0
20170528012436 72 222 2.0 7.0 0.00 0.00 0.00 50 1011.0
20170528012324 73 245 4.0 7.0 0.00 0.00 0.00 49 1011.1
20170528012133 73 245 4.0 7.0 0.00 0.00 0.00 49 1011.1
20170528011832 73 254 4.0 5.0 0.00 0.00 0.00 49 1011.1
20170528011531 73 252 3.0 5.0 0.00 0.00 0.00 49 1011.0
20170528011401 73 229 1.0 5.0 0.00 0.00 0.00 49 1011.1
20170528011230 73 229 1.0 5.0 0.00 0.00 0.00 49 1011.1
20170528011102 73 263 1.0 5.0 0.00 0.00 0.00 49 1011.0
20170528010930 73 263 1.0 5.0 0.00 0.00 0.00 49 1011.0
20170528010629 73 180 2.0 4.0 0.00 0.00 0.00 49 1011.1
20170528010431 73 189 1.0 3.0 0.00 0.00 0.00 49 1011.1
20170528010326 73 189 1.0 3.0 0.00 0.00 0.00 49 1011.1
20170528010145 73 180 0.0 5.0 0.00 0.00 0.00 49 1011.0
20170528010025 73 180 0.0 5.0 0.00 0.00 0.00 49 1011.0
20170528005837 73 230 3.0 5.0 0.00 0.00 0.00 49 1011.1
20170528005724 73 230 3.0 5.0 0.00 0.00 0.00 49 1011.1
20170528005237 74 236 2.0 10.0 0.00 0.00 0.00 49 1011.0
20170528005122 74 236 2.0 10.0 0.00 0.00 0.00 49 1011.0
20170528004933 74 263 5.0 10.0 0.00 0.00 0.00 48 1011.0
20170528004822 74 263 5.0 10.0 0.00 0.00 0.00 48 1011.0
20170528004625 74 258 7.0 7.0 0.00 0.00 0.00 48 1011.0
20170528004520 74 258 7.0 7.0 0.00 0.00 0.00 48 1011.0
20170528004220 74 251 0.0 7.0 0.00 0.00 0.00 48 1011.1
20170528004048 74 243 5.0 7.0 0.00 0.00 0.00 48 1011.1
20170528003918 74 243 5.0 7.0 0.00 0.00 0.00 48 1011.1
20170528003736 75 261 7.0 7.0 0.00 0.00 0.00 48 1011.1
20170528003616 75 261 7.0 7.0 0.00 0.00 0.00 48 1011.1
20170528003423 75 250 1.0 6.0 0.00 0.00 0.00 48 1011.1
20170528003315 75 250 1.0 6.0 0.00 0.00 0.00 48 1011.1
20170528003014 75 227 2.0 7.0 0.00 0.00 0.00 48 1011.1
20170528002837 75 241 3.0 6.0 0.00 0.00 0.00 47 1011.0
20170528002713 75 241 3.0 6.0 0.00 0.00 0.00 47 1011.0
20170528002529 75 261 4.0 9.0 0.00 0.00 0.00 47 1011.1
20170528002412 75 261 4.0 9.0 0.00 0.00 0.00 47 1011.1
20170528002237 75 261 4.0 9.0 0.00 0.00 0.00 47 1010.9
20170528002111 75 261 4.0 9.0 0.00 0.00 0.00 47 1010.9
20170528001632 76 247 5.0 7.0 0.00 0.00 0.00 47 1010.9
20170528001509 76 247 5.0 7.0 0.00 0.00 0.00 47 1010.9
20170528001345 76 245 1.0 8.0 0.00 0.00 0.00 47 1010.9
20170528001208 76 245 1.0 8.0 0.00 0.00 0.00 47 1010.9
20170528001043 76 247 3.0 6.0 0.00 0.00 0.00 47 1010.8
20170528000906 76 247 3.0 6.0 0.00 0.00 0.00 47 1010.8
20170528000859 76 254 4.0 7.0 0.00 0.00 0.00 47 1010.8
20170528000605 76 254 4.0 7.0 0.00 0.00 0.00 47 1010.8
20170528000440 76 225 0.0 6.0 0.00 0.00 0.00 47 1010.8
20170528000305 76 225 0.0 6.0 0.00 0.00 0.00 47 1010.8
20170527235915 76 256 8.0 8.0 0.00 0.00 0.00 47 1010.8
20170527235702 76 256 8.0 8.0 0.00 0.00 0.00 47 1010.8
20170527235403 76 240 0.0 8.0 0.00 0.00 0.00 47 1010.8
20170527235104 76 220 2.0 10.0 0.00 0.00 0.00 47 1010.9
20170527234458 76 220 0.0 6.0 0.00 0.00 0.00 46 1010.9
20170527234158 76 238 5.0 10.0 0.00 0.00 0.00 46 1011.1
20170527233856 77 252 8.0 8.0 0.00 0.00 0.00 46 1011.0
20170527233753 77 0 0.0 6.0 0.00 0.00 0.00 47 1011.1
20170527233559 77 0 0.0 6.0 0.00 0.00 0.00 47 1011.1
20170527233431 77 216 1.0 5.0 0.00 0.00 0.00 47 1011.1
20170527233253 77 216 1.0 5.0 0.00 0.00 0.00 47 1011.1
20170527233116 77 202 1.0 9.0 0.00 0.00 0.00 47 1011.1
20170527232956 77 202 1.0 9.0 0.00 0.00 0.00 47 1011.1
20170527232651 77 220 0.0 8.0 0.00 0.00 0.00 47 1011.1
20170527232523 77 237 3.0 9.0 0.00 0.00 0.00 47 1011.1
20170527232350 77 237 3.0 9.0 0.00 0.00 0.00 47 1011.1
20170527232208 77 240 4.0 7.0 0.00 0.00 0.00 47 1010.9
20170527232050 77 240 4.0 7.0 0.00 0.00 0.00 47 1010.9
20170527231447 77 180 7.0 7.0 0.00 0.00 0.00 47 1010.9
20170527231254 77 252 5.0 9.0 0.00 0.00 0.00 47 1011.0
20170527231146 77 252 5.0 9.0 0.00 0.00 0.00 47 1011.0
20170527230844 77 261 8.0 9.0 0.00 0.00 0.00 47 1010.9
20170527230241 77 232 0.0 7.0 0.00 0.00 0.00 47 1011.2
20170527225936 77 261 6.0 8.0 0.00 0.00 0.00 47 1011.3
20170527225637 77 236 3.0 7.0 0.00 0.00 0.00 48 1011.4
20170527225334 77 245 2.0 7.0 0.00 0.00 0.00 48 1011.2
20170527224908 77 252 3.0 7.0 0.00 0.00 0.00 48 1011.2
20170527224732 77 252 3.0 7.0 0.00 0.00 0.00 48 1011.2
20170527223831 77 237 4.0 7.0 0.00 0.00 0.00 48 1011.4
20170527223528 77 218 2.0 11.0 0.00 0.00 0.00 48 1011.3
20170527223228 77 254 8.0 10.0 0.00 0.00 0.00 47 1011.3
20170527222925 78 256 7.0 10.0 0.00 0.00 0.00 47 1011.2
20170527222624 78 245 6.0 10.0 0.00 0.00 0.00 47 1011.2
20170527222436 78 258 8.0 10.0 0.00 0.00 0.00 47 1011.3
20170527222323 78 258 8.0 10.0 0.00 0.00 0.00 47 1011.3
20170527222128 78 254 5.0 8.0 0.00 0.00 0.00 47 1011.3
20170527222024 78 254 5.0 8.0 0.00 0.00 0.00 47 1011.3
20170527221722 78 256 5.0 7.0 0.00 0.00 0.00 47 1011.2
20170527221531 78 235 3.0 11.0 0.00 0.00 0.00 47 1011.3
20170527221420 78 235 3.0 11.0 0.00 0.00 0.00 47 1011.3
20170527221238 78 247 4.0 8.0 0.00 0.00 0.00 47 1011.3
20170527221121 78 247 4.0 8.0 0.00 0.00 0.00 47 1011.3